Showing default

MAROC TUBSAT, 27004

Orbit data source: Space-Track

MAROC TUBSAT, 27004 is a payload satellite owned by CRTS (DE) in SSO that was launched on Mon, 10 Dec 2001 UTC via a ZENIT-2 launch vehicle from the Tyuratam Missile And Space Complex (TTMTR). Payload-class satellites include a variety of spacecraft equipped with specific instruments for various scientific and technological missions. These include communications satellites like Starlink; space stations such as the ISS; scientific satellites like the Hubble; Earth observation satellites from companies like Planet Labs, Umbra, and HawkEye 360; GPS; miniature CubeSats for education and research; and military/defense satellites.

Loading next visibility...
Identifier
27004, 2001-056D
Orbit
SSO
Country
Flag of DEDE / GER
Related business
Manufacturer
TUB
Mission
Operational Civil Imaging
Bus & Motor
TUBSAT, Unknown motor
Mass
45 kg wet, 45 kg dry
Launch date (UTC)
2001-12-10 (24 years ago)
Launch vehicle
ZENIT-2
Launch site
Tyuratam Missile And Space Complex (TTMTR)
Object type
Payload
Rocket body
Debris
Shape & HBR
Box, 1.0 m
Radar Cross Section
0.200 m², Medium (>0.1 m² and < 1m²)

Expand to show TLE details & history
Last TLE update: 18 hours ago

TLE from 18 hours ago
0 MAROC TUBSAT
1 27004U 01056D   25347.32185838 -.00000004  00000-0  47871-4 0  9990
2 27004  99.7912 155.7770 0019104 258.5926 170.8262 13.70252919200733
Epoch: 2025-12-13T07:43Z
TLE epoch observation values (Epoch: 2025-12-13T07:43:28.564Z)
Latitude
67.414°
Longitude
-66.71859°
Altitude
1,024.161 km
Speed
7.339 km/s
True Right ascension
08h 45m 36s
True Declination
67° 17' 46"
Sunlit
Object was in full shadow at epoch
Visualization orbit readout
Latitude
Unknown
Longitude
Unknown
Altitude
Unknown
Speed
Unknown
Apparent Right ascension
Unknown
Apparent Declination
Unknown
Sunlit
N/A
Visualization observer readout
Local Sidereal Time
00:35:11
Azimuth
Unknown
Elevation
Unknown
Doppler factor
Unknown
Orbital elements
Apogee altitude
1,010.03 km
Perigee altitude
981.855 km
Semi-major axis
7,374.079 km
Eccentricity
0.00191
Inclination
99.7912°
RAAN
155.777°
Arg. of periapsis
258.5926°
True anomaly
170.86102°
Mean anomaly
170.8262°
Eccentric anomaly
170.84362°
Mean motion
3.42753 °/min
Orbital period
105.03 mins
BSTAR
0.000047871
Loading maneuver chart data...
Computing Atmospheric mass density...
Loading historical data...
Loading historical data...
Loading historical data...
Loading historical data...
Loading historical data...
Loading historical data...
Loading historical data...

Documentation

Showing up to 5 results
|